Location: Bathurst
(33.4193°S, 149.5775°E)
Time: 00:32:39
(UTC+10:00)

A-11 Canister half - Pass Details

Date: 15 June 2021
Orbit: 1513 x 1687 km, 47.2° (Epoch: 28 July)

Event Time Altitude Azimuth Distance (km) Brightness Sun altitude
Rises 17:51:09 0° 295° (WNW) 4,677 13.8 -10.4°
Reaches altitude 10° 17:54:12 10° 291° (WNW) 3,714 12.6 -11.0°
Maximum altitude 18:03:33 64° 210° (SSW) 1,722 9.3 -12.9°
Enters shadow 18:12:01 15° 131° (SE) 3,475 10.3 -14.5°
